[[{"header":{"parameterUnit":"m.s-1","parameterCategory":1,"la1":30.2991,"la2":30.254,"lo1":-89.0895,"lo2":-89.0444,"dy":0.0017,"dx":0.0017,"nx":28,"ny":28,"refTime":"2024-07-24T03:00:00:Z","depth":0,"parameterNumber":2,"parameterNumberName":"U-component_of_WINDS"},"data":[0,0,0,0,0,0,0,0,0,0,0,0,0,0,0,0,0,0,0,0,0,0,0,0,0,0,0,0,0,0,0,0,0,0,0,0,0,0,0,0,0,0,0,0,0,0,0,0,0,0,0,0,0,0,0,0,0,0,-0.5428,-0.5429,0,-0.5502,-0.5503,-0.5503,-0.5567,-0.5568,-0.5569,-0.557,-0.5642,-0.5643,-0.5644,0,0,0,0,0,0,0,0,0,0,0,0,0,-0.5341,-0.5342,-0.5428,-0.5429,-0.543,-0.5502,-0.5503,-0.5504,-0.5567,-0.5568,-0.5569,-0.557,-0.5642,-0.5643,-0.5645,0,0,0,0,0,0,0,0,0,0,0,0,0,-0.5393,-0.5342,-0.5428,-0.547,-0.5475,-0.5501,-0.5503,-0.5504,-0.5567,-0.5568,-0.5569,-0.557,-0.5641,-0.5643,-0.5645,-0.5634,0,0,-0.5651,-0.5651,0,0,0,0,0,0,0,0,-0.539,-0.5396,-0.5463,-0.5467,-0.5473,-0.5527,-0.5499,-0.5547,-0.5567,-0.5532,-0.557,-0.5571,-0.5603,-0.5608,-0.5619,-0.5638,-0.5641,-0.5651,-0.5652,-0.5653,-0.5653,0,0,0,0,0,0,0,-0.5386,-0.5393,-0.5457,-0.5464,-0.547,-0.5485,-0.5494,-0.5508,-0.556,-0.5535,-0.554,-0.5548,-0.5605,-0.5617,-0.5621,-0.5642,-0.5651,-0.5652,-0.5653,-0.5654,-0.5657,-0.5656,0,0,0,0,0,0,-0.5376,-0.539,-0.5455,-0.5459,-0.5433,-0.5486,-0.5495,-0.5508,-0.556,-0.5569,-0.5547,-0.5551,-0.5613,-0.5619,-0.5624,-0.5616,-0.5653,-0.5654,-0.5655,-0.5658,-0.5657,-0.5656,0,0,0,0,0,0,-0.5374,-0.5381,-0.5452,-0.5426,-0.5436,-0.5486,-0.55,-0.5509,-0.5521,-0.5569,-0.5578,-0.5549,-0.5614,-0.5621,-0.5632,-0.5619,-0.5655,-0.5657,-0.5659,-0.5658,-0.5656,-0.5598,0,0,0,0,0,0,-0.5371,-0.538,-0.5377,-0.5425,-0.5437,-0.5458,-0.5499,-0.551,-0.5524,-0.553,-0.5574,-0.5582,-0.5616,-0.5629,-0.5634,-0.5622,-0.5658,-0.5661,-0.5659,-0.5657,-0.5602,-0.5595,-0.5589,0,0,0,0,0,-0.5368,-0.5357,-0.5376,-0.5384,-0.5434,-0.5458,-0.5464,-0.5504,-0.5523,-0.552,-0.5551,-0.5581,-0.562,-0.5629,-0.5635,-0.5624,-0.5662,-0.5659,-0.5657,-0.5604,-0.5596,-0.559,0,0,0,0,0,0,-0.5304,-0.5364,-0.5386,-0.539,-0.5419,-0.5468,-0.5466,-0.5494,-0.5516,-0.5521,-0.5568,-0.5578,-0.5583,-0.5605,-0.5614,-0.5618,-0.5645,-0.5644,-0.5603,-0.5596,-0.559,-0.5584,-0.566,0,0,0,0,0,-0.529,-0.5305,-0.5357,-0.5355,-0.5369,-0.5415,-0.5426,-0.5455,-0.5485,-0.5497,-0.5529,-0.5557,-0.5576,-0.5587,-0.5607,-0.5606,-0.5616,-0.5601,-0.5595,-0.559,-0.5588,-0.559,-0.5584,-0.5648,-0.5648,-0.5648,0,0,-0.5262,-0.5297,-0.5303,-0.5343,-0.5369,-0.5382,-0.5424,-0.5436,-0.5447,-0.5499,-0.5511,-0.5536,-0.557,-0.5575,-0.5578,-0.5593,-0.5573,-0.5587,-0.5582,-0.5583,-0.5587,-0.558,-0.5575,-0.5647,-0.5647,-0.5647,0,0,-0.5218,-0.5246,-0.5248,-0.5273,-0.5312,-0.5343,-0.5343,-0.539,-0.5408,-0.5422,-0.5461,-0.5474,-0.5505,-0.5529,-0.5545,-0.5512,-0.554,-0.5517,-0.5484,-0.5485,-0.548,-0.5476,-0.5464,-0.5459,-0.5515,-0.5515,-0.5515,0,-0.5178,-0.5201,-0.5246,-0.5257,-0.5273,-0.5323,-0.5325,-0.5347,-0.5389,-0.54,-0.5416,-0.5457,-0.5484,-0.5495,-0.5487,-0.5499,-0.5501,-0.5511,-0.5478,-0.5474,-0.547,-0.546,-0.5455,-0.5512,-0.5512,-0.5512,-0.5513,0,-0.515,-0.5166,-0.5163,-0.5204,-0.5221,-0.5227,-0.5273,-0.5284,-0.5312,-0.5341,-0.5354,-0.5388,-0.5417,-0.5422,-0.5448,-0.5437,-0.5445,-0.5469,-0.5497,-0.546,-0.5451,-0.5447,-0.5507,-0.5508,-0.5509,-0.551,0,0,-0.5065,-0.5133,-0.5131,-0.5151,-0.5198,-0.5211,-0.522,-0.5249,-0.5258,-0.5286,-0.5294,-0.5321,-0.5344,-0.5362,-0.5392,-0.5393,-0.5365,-0.5417,-0.5418,-0.5405,-0.5355,-0.5336,-0.533,-0.5384,-0.5384,-0.5383,-0.5352,0,-0.5029,-0.5049,-0.509,-0.5097,-0.5112,-0.516,-0.5168,-0.5198,-0.5226,-0.5243,-0.5274,-0.5291,-0.5321,-0.5332,-0.5335,-0.5367,-0.5355,-0.537,-0.5392,-0.5392,-0.5381,-0.5326,-0.5305,-0.5274,-0.5349,-0.5348,-0.5348,0,-0.4988,-0.5015,-0.5023,-0.5071,-0.5078,-0.5085,-0.5115,-0.5131,-0.5166,-0.5186,-0.5207,-0.5241,-0.5253,-0.528,-0.5297,-0.5307,-0.5319,-0.5336,-0.5336,-0.5338,-0.5367,-0.5326,-0.5265,-0.5259,-0.5342,-0.5343,-0.5343,0,-0.4925,-0.4963,-0.4974,-0.4989,-0.5045,-0.5048,-0.5071,-0.5107,-0.5123,-0.5149,-0.516,-0.5187,-0.5201,-0.5222,-0.5261,-0.5277,-0.5275,-0.5305,-0.5291,-0.529,-0.5287,-0.5287,-0.5226,-0.5296,-0.5296,-0.5296,-0.5296,0,-0.4879,-0.4882,-0.4946,-0.4952,-0.4958,-0.5006,-0.501,-0.5037,-0.5069,-0.5081,-0.5125,-0.5135,-0.5188,-0.5204,-0.5236,-0.5245,-0.5252,-0.5268,-0.5276,-0.5264,-0.5261,-0.5271,-0.5274,-0.5295,-0.5295,-0.5296,-0.5296,0,-0.4809,-0.4852,-0.4867,-0.4919,-0.4932,-0.4934,-0.4978,-0.4986,-0.5018,-0.5033,-0.5039,-0.5088,-0.511,-0.5153,-0.5186,-0.5207,-0.5209,-0.5224,-0.5198,-0.5203,-0.5187,-0.5187,-0.5129,-0.5124,-0.5198,-0.5197,-0.5197,0,-0.4776,-0.478,-0.4833,-0.4845,-0.4867,-0.4886,-0.4902,-0.495,-0.4965,-0.5006,-0.5009,-0.5034,-0.5057,-0.509,-0.5128,-0.5154,-0.5169,-0.5148,-0.5173,-0.5161,-0.5168,-0.5167,-0.5168,-0.5141,-0.514,-0.5139,-0.5138,0,-0.4713,-0.4735,-0.4757,-0.4787,-0.4806,-0.4832,-0.4859,-0.4867,-0.4921,-0.4936,-0.4959,-0.4977,-0.5012,-0.5037,-0.5069,-0.5093,-0.5124,-0.513,-0.5129,-0.5115,-0.5099,-0.5107,-0.5181,-0.5131,-0.5132,-0.5132,-0.5133,-0.5133,-0.466,-0.4667,-0.4705,-0.4729,-0.4756,-0.4781,-0.4791,-0.4825,-0.4846,-0.4879,-0.4906,-0.4928,-0.4964,-0.501,-0.5032,-0.5049,-0.5064,-0.5062,-0.5061,-0.5059,-0.5054,-0.5098,-0.5055,-0.5056,-0.5056,-0.5056,-0.5056,0,-0.4599,-0.4627,-0.4649,-0.4687,-0.4706,-0.4736,-0.4769,-0.4783,-0.4801,-0.4833,-0.4855,-0.4883,-0.4907,-0.4949,-0.4977,-0.4983,-0.4998,-0.4988,-0.4988,-0.4993,-0.5039,-0.5037,-0.4976,-0.4976,-0.4976,-0.4976,-0.4976,-0.4976,-0.457,-0.4582,-0.4608,-0.4634,-0.4662,-0.4684,-0.4701,-0.4725,-0.475,-0.4779,-0.4801,-0.4828,-0.4863,-0.4895,-0.4919,-0.4931,-0.4938,-0.4924,-0.494,-0.4982,-0.4989,-0.4996,-0.4995,-0.4926,-0.4925,-0.4892,-0.4892,-0.4892]},{"header":{"parameterUnit":"m.s-1","parameterCategory":1,"la1":30.2991,"la2":30.254,"lo1":-89.0895,"lo2":-89.0444,"dy":0.0017,"dx":0.0017,"nx":28,"ny":28,"refTime":"2024-07-24T03:00:00:Z","depth":0,"parameterNumber":3,"parameterNumberName":"V-component_of_WINDS"},"data":[0,0,0,0,0,0,0,0,0,0,0,0,0,0,0,0,0,0,0,0,0,0,0,0,0,0,0,0,0,0,0,0,0,0,0,0,0,0,0,0,0,0,0,0,0,0,0,0,0,0,0,0,0,0,0,0,0,0,1.2718,1.2715,0,1.2441,1.2438,1.2435,1.2292,1.2292,1.2292,1.2292,1.2001,1.1994,1.1986,0,0,0,0,0,0,0,0,0,0,0,0,0,1.3117,1.3111,1.2718,1.2714,1.2711,1.2441,1.2438,1.2434,1.2292,1.2292,1.2292,1.2292,1.2004,1.1995,1.1986,0,0,0,0,0,0,0,0,0,0,0,0,0,1.2902,1.3109,1.2719,1.2608,1.2595,1.2442,1.2437,1.2433,1.2292,1.2292,1.2292,1.2291,1.2007,1.1996,1.1985,1.1918,0,0,1.195,1.1945,0,0,0,0,0,0,0,0,1.2915,1.2888,1.2628,1.2615,1.2601,1.2401,1.2472,1.226,1.2292,1.2407,1.2292,1.2291,1.2134,1.2112,1.206,1.1905,1.1892,1.1949,1.1942,1.1937,1.1934,0,0,0,0,0,0,0,1.293,1.2899,1.2608,1.2624,1.2608,1.257,1.2539,1.2431,1.2275,1.2397,1.2386,1.2356,1.2127,1.2072,1.2053,1.1888,1.1949,1.1939,1.1932,1.1927,1.1662,1.1662,0,0,0,0,0,0,1.2964,1.2912,1.2617,1.26,1.2761,1.2563,1.2529,1.2465,1.2276,1.2247,1.2356,1.235,1.2091,1.2066,1.2042,1.195,1.1937,1.1926,1.192,1.1662,1.1662,1.1662,0,0,0,0,0,0,1.2973,1.2939,1.2628,1.2753,1.2711,1.2556,1.2486,1.246,1.2405,1.2245,1.2216,1.2329,1.209,1.2058,1.195,1.1938,1.1921,1.1911,1.1663,1.1662,1.1662,1.1768,0,0,0,0,0,0,1.2985,1.2943,1.2917,1.2754,1.2705,1.2543,1.2486,1.2455,1.2386,1.2376,1.2212,1.2184,1.2088,1.1968,1.1939,1.1922,1.1902,1.1663,1.1662,1.1662,1.1765,1.1771,1.1777,0,0,0,0,0,1.3,1.2957,1.2917,1.2882,1.267,1.2543,1.2514,1.2406,1.2386,1.2358,1.2255,1.2189,1.1945,1.1958,1.1924,1.1904,1.1663,1.1663,1.1662,1.1762,1.177,1.1777,0,0,0,0,0,0,1.3121,1.2933,1.2887,1.2791,1.2684,1.2519,1.248,1.2418,1.2313,1.2307,1.2175,1.2139,1.2043,1.1963,1.1981,1.1829,1.1797,1.179,1.1885,1.1891,1.1897,1.1917,1.1892,0,0,0,0,0,1.3137,1.3052,1.2892,1.2822,1.2771,1.2636,1.2576,1.2502,1.2385,1.2339,1.2228,1.2115,1.2013,1.1948,1.1845,1.1754,1.1714,1.1723,1.1729,1.1735,1.1729,1.1673,1.1675,1.166,1.166,1.166,0,0,1.3168,1.3055,1.3009,1.2843,1.2752,1.2664,1.2598,1.2508,1.2441,1.2324,1.2216,1.2131,1.1996,1.1897,1.1847,1.1827,1.1725,1.1734,1.174,1.1731,1.1673,1.1675,1.1676,1.166,1.166,1.166,0,0,1.3179,1.3087,1.3018,1.2929,1.2792,1.2702,1.2687,1.2531,1.2471,1.2361,1.2271,1.2188,1.2015,1.1923,1.1853,1.1832,1.1766,1.1802,1.1832,1.178,1.1781,1.1781,1.1772,1.177,1.1797,1.1797,1.1798,0,1.3234,1.3101,1.299,1.2905,1.2834,1.2728,1.2655,1.2573,1.241,1.2362,1.2342,1.2123,1.2025,1.1901,1.1896,1.1844,1.182,1.1818,1.179,1.1789,1.1788,1.1777,1.1774,1.1802,1.1802,1.1801,1.1801,0,1.3174,1.3083,1.3044,1.2891,1.2816,1.2738,1.2613,1.255,1.2483,1.2395,1.2284,1.2163,1.2033,1.1999,1.1932,1.1866,1.1857,1.1816,1.178,1.1796,1.1784,1.1779,1.181,1.1808,1.1806,1.1805,0,0,1.3252,1.3041,1.3028,1.2957,1.2799,1.2725,1.2642,1.2518,1.2465,1.2356,1.2282,1.2139,1.2099,1.2021,1.1942,1.1897,1.1885,1.186,1.1855,1.1867,1.1803,1.1834,1.1831,1.1843,1.1841,1.184,1.1814,0,1.324,1.3088,1.2986,1.2873,1.2786,1.2684,1.2612,1.2506,1.2422,1.2335,1.2241,1.2141,1.2098,1.2049,1.2,1.1898,1.187,1.1898,1.1769,1.1766,1.1804,1.1825,1.1856,1.1837,1.1808,1.1807,1.1807,0,1.3204,1.3101,1.298,1.2832,1.2792,1.2729,1.2606,1.2525,1.2402,1.2344,1.2258,1.2179,1.2084,1.206,1.1928,1.1949,1.189,1.1833,1.1829,1.181,1.1786,1.1805,1.1828,1.1825,1.1798,1.1799,1.18,0,1.3271,1.3101,1.3007,1.2949,1.2775,1.2733,1.2657,1.2535,1.2467,1.236,1.2313,1.2196,1.2131,1.2042,1.1932,1.1925,1.181,1.1777,1.1757,1.176,1.1735,1.1738,1.1748,1.1702,1.1702,1.1702,1.1703,0,1.3266,1.3196,1.3034,1.2976,1.2894,1.2777,1.2698,1.2614,1.2507,1.2429,1.2333,1.2262,1.2123,1.2034,1.1948,1.185,1.1822,1.1771,1.1748,1.1778,1.1784,1.1736,1.1733,1.1701,1.1702,1.1702,1.1702,0,1.3325,1.3215,1.3105,1.295,1.2909,1.2855,1.272,1.2659,1.2571,1.2474,1.2444,1.2305,1.2195,1.2078,1.1928,1.187,1.1776,1.1746,1.1818,1.1805,1.1791,1.1794,1.1768,1.1758,1.1723,1.1724,1.1724,0,1.3328,1.3272,1.3112,1.3054,1.2982,1.289,1.282,1.2703,1.2634,1.2492,1.2447,1.2331,1.2231,1.2061,1.1945,1.183,1.1795,1.1794,1.1776,1.1808,1.1792,1.1796,1.1789,1.1798,1.1799,1.18,1.1801,0,1.3345,1.3293,1.3198,1.3084,1.3004,1.2908,1.2807,1.2765,1.2628,1.2555,1.2443,1.2367,1.2215,1.21,1.1971,1.1891,1.1822,1.1808,1.1797,1.1825,1.1869,1.1843,1.1831,1.1808,1.1807,1.1807,1.1807,1.1806,1.3374,1.3319,1.3198,1.3094,1.3008,1.2917,1.2851,1.2756,1.2662,1.253,1.2467,1.2355,1.2233,1.2054,1.1976,1.1885,1.1864,1.1849,1.1844,1.1842,1.1849,1.1886,1.1861,1.1861,1.1861,1.186,1.186,0,1.3383,1.3301,1.3208,1.3072,1.2991,1.2937,1.2823,1.2758,1.2661,1.2555,1.246,1.2331,1.222,1.2096,1.1977,1.1928,1.1893,1.19,1.1901,1.1884,1.1875,1.1896,1.193,1.193,1.193,1.193,1.193,1.193,1.3379,1.3283,1.3218,1.3077,1.2994,1.2885,1.2825,1.274,1.2654,1.2516,1.2423,1.2345,1.2231,1.2103,1.1998,1.1964,1.1923,1.1939,1.1897,1.189,1.1884,1.1879,1.1898,1.1932,1.1932,1.1912,1.1912,1.1912]}]]